Flag for U.S.A. Weather past 2 weeks in Raleigh, North Carolina, U.S.A.

Now
86 °F

Scattered clouds.


Feels Like: 91 °F
Forecast: 70 / 90 °F
Wind: 5 mph from Southeast

Location: Raleigh-Durham International Airport

Current Time: Aug 20, 2014 at 2:59:13 PM

Latest Report: Aug 20, 2014 at 1:51 PM


Visibility: 10 mi

Pressure: 29.96 "Hg

Humidity: 59%

Dew point: 70 °F

Location of RaleighLocation

Historic Weather in Raleigh — Graph

°F

Raleigh temperature yesterday

Maximum temperature yesterday: 86 °F (at 4:51 PM)
Minimum temperature yesterday: 69 °F (at 5:51 AM)
Average temperature yesterday: 77 °F

Past Weeks' High & Low Weather Summary

 TemperatureHumidityPressure
High89 °F (Aug 6, 2:51 PM)94% (Aug 10, 1:04 AM)30.14 "Hg (Aug 10, 1:04 AM)
Low58 °F (Aug 14, 6:51 AM)39% (Aug 6, 2:51 PM)29.77 "Hg (Aug 19, 3:51 AM)
Average75 °F74%29.97 "Hg
* Reported Aug 5 1:51 PM — Aug 20 1:51 PM, Raleigh, Weather by CustomWeather, © 2014

Note: Actual official high and low records may vary slightly from our data, if they occured in-between our weather recording intervals... More about our weather records

Advertising

Raleigh weather history for previous 24 hours

 ConditionsComfort  
Time TempWeatherWind HumidityBarometerVisibility
1:51 PM
Aug 20
86 °FScattered clouds.5 mph59%29.96 "Hg10 mi
12:51 PM84 °FBroken clouds.No wind65%29.99 "Hg10 mi
11:51 AM83 °FBroken clouds.No wind68%30.00 "Hg10 mi
10:51 AM80 °FBroken clouds.3 mph74%30.01 "Hg10 mi
9:51 AM79 °FBroken clouds.No wind77%29.99 "Hg10 mi
8:51 AM75 °FPartly sunny.3 mph85%29.97 "Hg5 mi
7:51 AM73 °FFog.No wind90%29.95 "Hg0 mi
6:51 AM72 °FFog.No wind93%29.94 "Hg0 mi
5:51 AM73 °FFog.6 mph90%29.92 "Hg1 mi
4:51 AM72 °FFog.5 mph93%29.90 "Hg5 mi
3:51 AM71 °FPassing clouds.No wind93%29.89 "Hg8 mi
2:51 AM73 °FPassing clouds.3 mph88%29.88 "Hg10 mi
1:51 AM74 °FPassing clouds.No wind88%29.88 "Hg10 mi
12:51 AM73 °FPassing clouds.No wind90%29.88 "Hg8 mi
11:51 PM
Aug 19
73 °FPassing clouds.No wind90%29.89 "Hg10 mi
10:51 PM75 °FPassing clouds.5 mph88%29.88 "Hg9 mi
9:51 PM75 °FPassing clouds.No wind88%29.88 "Hg9 mi
8:51 PM77 °FBroken clouds.No wind82%29.86 "Hg10 mi
7:51 PM79 °FBroken clouds.No wind74%29.83 "Hg10 mi
6:51 PM81 °FPartly sunny.No wind72%29.82 "Hg10 mi
5:51 PM86 °FScattered clouds.5 mph57%29.82 "Hg10 mi
4:51 PM86 °FScattered clouds.3 mph57%29.83 "Hg10 mi
3:51 PM84 °FScattered clouds.7 mph61%29.82 "Hg10 mi
2:51 PM85 °FScattered clouds.No wind61%29.83 "Hg10 mi
Weather by CustomWeather, © 2014

See weather overviewHow to use our weather pages